Regional Weather Roundup
Issued by NWS Wakefield, VA

Home | Current Version | Previous Version | Graphics & Text | Print | Product List | Glossary On
Versions: 1 2 3 4 5 6 7 8 9 10 11 12 13 14 15 16 17 18 19 20 21 22 23 24 25 26 27 28 29 30 31 32 33 34 35 36 37 38 39 40 41 42 43 44 45 46 47 48 49 50
000
ASUS41 KAKQ 050415
RWRAKQ

REGIONAL WEATHER ROUNDUP
NATIONAL WEATHER SERVICE WAKEFIELD VA
1200 AM EDT TUE MAY 05 2015

Note: "fair" indicates few or no clouds below 12,000 feet with no
significant weather and/or obstructions to visibility. * = Denotes
station may not report precipitation (e.g., rain,snow,etc.),
thunder or fog.

VAZ042-051-052>054-056-050500-
NORTHERN VIRGINIA

CITY           SKY/WX    TMP DP  RH WIND       PRES   REMARKS
WASH NATIONAL  MOCLDY    71  58  63 S9        30.20R
DULLES         PTCLDY    69  53  56 S9        30.20R
FORT BELVOIR   CLEAR     68  54  61 SE2       30.20S
QUANTICO       CLEAR     68  58  70 S8        30.22R
FREDERICKSBRG* CLEAR     72  55  55 S8        30.21R
STAFFORD*      CLEAR     67  50  54 S5        30.26R
WARRENTON      CLEAR     69  56  63 S6        30.21R
CULPEPER*      NOT AVBL
MANASSAS*      CLEAR     70  55  60 S5        30.20R
LEESBURG*      CLEAR     70  55  60 S6        30.20S
WINCHESTER     CLEAR     66  45  45 S5        30.19S
FRONT ROYAL*   FAIR      64  52  63 S7        30.19S
LURAY*         FAIR      68  54  60 S7        30.22R
$$

VAZ048-049-060>072-079>083-050500-
CENTRAL AND SOUTH CENTRAL VIRGINIA

CITY           SKY/WX    TMP DP  RH WIND       PRES   REMARKS
RICHMOND       CLEAR     69  51  52 S12       30.26R
CHESTERFIELD*  FAIR      70  46  43 S9        30.28R
PETERSBURG*    CLEAR     69  50  50 S9        30.28R
HANOVER        CLEAR     70  51  51 S10       30.26R
TAPPAHANNOCK*  CLEAR     68  47  47 S5        30.25R
QUINTON*       FAIR      68  52  55 S5        30.26R
CHARLOTTSVILLE PTCLDY    68  53  58 S9        30.22R
GORDONSVILLE*  FAIR      62  55  76 SW5       30.22R
ORANGE*        CLEAR     64  54  68 CALM      30.24R
LOUISA*        MOCLDY    70  55  60 S5        30.22S
BUMPASS*       FAIR      68  53  58 S5        30.23S
FARMVILLE*     CLEAR     69  53  55 SW7       30.24S
CREWE*         FAIR      67  52  58 S7        30.27R
FORT PICKETT*  FAIR      66  53  61 S17G23    30.28R
CHASE CITY*    FAIR      69  56  64 S3        30.29R
CLARKSVILLE*   FAIR      66  54  63 S9        30.28R
SOUTH HILL*    CLEAR     65  54  67 S10       30.35R
LAWRENCEVILLE* FAIR      66  54  66 S6        30.29R
EMPORIA*       CLEAR     64  52  63 SE6       30.31S
$$

VAZ088>098-050500-
SOUTHEAST VIRGINIA

CITY           SKY/WX    TMP DP  RH WIND       PRES   REMARKS
NORFOLK        CLEAR     68  51  54 SW18G25   30.29R
VIRGINIA BEACH CLEAR     71  51  49 SW13      30.29S
NORFOLK NAVAL  CLEAR     73  52  47 SW14      30.31R
WEST POINT*    CLEAR     72  48  43 S8        30.28R
SALUDA*        FAIR      68  51  55 S12G20    30.26R
NEWPORT NEWS   CLEAR     71  53  52 SW14      30.29R
LANGLEY AFB    CLEAR     68  54  60 S15       30.28R
FORT EUSTIS    CLEAR     68  54  60 S8        30.27R
WILLIAMSBURG*  CLEAR     72  55  56 SW5       30.29R
HR EXEC AP*    FAIR      66  52  59 SW7       30.32R
FRANKLIN*      CLEAR     65  52  62 S6        30.31R
WAKEFIELD      CLEAR     68  52  56 S8        30.29R
$$

VAZ020-022-025-037-045-050500-
WEST CENTRAL AND SOUTHWEST VIRGINIA

CITY           SKY/WX    TMP DP  RH WIND       PRES   REMARKS
STAUNTON*      FAIR      60  52  76 CALM      30.26R
WAYNESBORO*    FAIR      66  50  55 CALM      30.25R
HOT SPRINGS VA CLEAR     61  44  53 W7        30.34R
LYNCHBURG      CLEAR     60  53  77 S3        30.28R
DANVILLE       CLEAR     66  51  58 S6        30.28R
SOUTH BOSTON*  FAIR      66  53  61 S6        30.28R
MARTINSVILLE   CLEAR     58  53  83 CALM      30.31R
ROANOKE        CLEAR     67  51  56 CALM      30.28S
BLACKSBURG     CLEAR     55  50  84 CALM      30.34S
DUBLIN*        CLEAR     61  53  73 SW5       30.33R
MARION*        CLEAR     56  47  72 CALM      30.36S
HILLSVILLE*    CLEAR     63  49  61 S7        30.35R
RICHLANDS*     FAIR      64  42  43 SW3       30.33S
WISE*          FAIR      61  41  48 S5        30.34S
ABINGDON*      CLEAR     58  49  71 CALM      30.32S
$$

MDZ021>025-VAZ099-100-050500-
SOUTHERN MARYLAND AND THE DELMARVA PENINSULA

CITY           SKY/WX    TMP DP  RH WIND       PRES   REMARKS
PATUXENT RIVER CLEAR     68  53  58 SW10      30.22S
BAY BRIDGE APT   N/A    N/A N/A N/A S8        30.20S
LEONARDTOWN    CLEAR     68  50  52 SW7       30.24S
DOVER          PTCLDY    68  46  45 SW3       30.19R
GEORGETOWN     CLEAR     63  46  54 S9        30.24S
EASTON         CLEAR     68  55  62 S8        30.25S
CAMBRIDGE      CLEAR     66  54  63 S7        30.23S
SALISBURY      CLEAR     62  47  57 S7        30.25R
OCEAN CITY     CLEAR     63  53  70 SW10      30.26S
WALLOPS ISLAND FAIR      61  55  81 S9        30.27R
ACCOMACK*      CLEAR     66  46  48 SW9       30.27R
$$

NCZ012>017-030>032-050500-
NORTH CENTRAL AND EASTERN NORTH CAROLINA

CITY           SKY/WX    TMP DP  RH WIND       PRES   REMARKS
ROANOKE RAPIDS FAIR      64  52  63 S8        30.31R
RALEIGH        CLEAR     67  54  63 S10       30.32R
ELIZABETH CITY CLEAR     65  52  62 S12       30.32S
AHOSKIE*       CLEAR     64  51  61 S6        30.32S
EDENTON*       CLEAR     65  55  69 S8        30.33S
CURRITUCK*     CLEAR     67  49  52 SW6       30.33R
KILL DEVIL HLS CLEAR     64  54  68 SW6       30.33S
MANTEO         CLEAR     64  57  78 SW9       30.34S
CAPE HATTERAS  CLEAR     64  55  72 S7        30.35S
TARBORO*       FAIR      67  51  57 S6        30.33S
GOLDSBORO      NOT AVBL
WASHINGTON     CLEAR     63  54  72 S3        30.35R
GREENVILLE     CLEAR     64  54  68 SW9       30.34R
NEW BERN       CLEAR     58  53  84 CALM      30.36S
WILMINGTON     CLEAR     60  56  86 CALM      30.35S
$$

VAZ048-050500-
ELSEWHERE

CITY           SKY/WX    TMP DP  RH WIND       PRES   REMARKS
HARRISBURG PA  PTCLDY    67  54  63 CALM      30.15S
BALTIMORE      CLEAR     68  52  56 CALM      30.19R
ANNAPOLIS      CLEAR     63  55  75 S5        30.20R
ANDREWS AFB    CLEAR     69  53  55 S13       30.20R
PHILADELPHIA   PTCLDY    70  49  47 S7        30.20R
HENDERSON NC   CLEAR     66  51  59 S9G16     30.31R
GREENSBORO     CLEAR     66  51  58 S9        30.30R
ROCKY MOUNT    CLEAR     65  53  65 S7        30.33R
$$

VAZ100-050500-
MARINE

STATION/POSITION TIME  TEMP    WIND        PRES    WAVE   SWELL
                       AIR SEA DIR/SP/G            HT/PER HT/PER
                 (UTC) (F)     (DEG/KT/KT) (MB)    (FT/S) (FT/S)
BRANDYWINE LGT   0312   65 54  200/ 18/ 19 1023.4S
CAPE MAY NJ      0300   64 62  180/ 10/ 14 1023.3F
LEWES DE         0300   69 57  210/  8/ 11 1023.5F
15NM E FENWICK I 0350   56 53              1024.4R   3/ 9
OCEAN-CITY-INLET 0312   56 52  210/ 12/ 14 1024.3F
WACHAPREAGUE VA  0300   64 66  220/ 10/ 13 1024.9S
THOMAS POINT MD  0400   63 58  170/ 16/ 17 1023.2R
GOOSES REEF MD   0400   62 58                N/A     1
COVE POINT MD    0300   65     200/ 10/ 11 1023.9S
SOLOMONS ISLAND  0300      63                N/A
BISHOPS HEAD MD  0300   67 67  190/ 17/ 19 1023.3R
PINEY POINT MD   0300          210/ 10/ 12   N/A
CAMBRIDGE MD     0300   67 62  180/  6/  8 1023.2F
LEWISETTA VA     0300   69 67              1023.3S
RAPPAHANNOCK LGT 0300          180/ 20/ 21 1025.0S
YORK RVR RNG VA  0300   69     200/ 19/ 21 1024.2R
YORKTOWN VA      0300   71 62  190/ 14/ 18 1024.5R
JAMESTOWN VA     0400   68 65  220/ 12/ 17 1024.3R
DOMINION TERM VA 0300   68     200/ 15/ 18 1025.3R
KIPTOPEKE VA     0300      66  200/ 15/ 16   N/A
CHES BAY BRIDGE  0300   69 57  180/ 19/ 22 1024.9R
CAPE HENRY VA    0300   69     190/ 12/ 19 1024.3R
CHESAPEAKE LGHT  0300   64     200/ 20/ 20 1026.2R
WILLOUBY STN VA  0300   70     190/ 20/ 23 1025.9R
S CRANEY ISL VA  0300          200/ 11/ 16 1025.6R
CAPE HENRY BUOY  0328      59                N/A     2/13   2/13
1ST LANDING BUOY 0400      59                N/A     1/ 3
CAPE CHARLES BUO 0326      57                N/A     3/11   2/11
OFFSHORE WE BUOY 0311      52                N/A     3/ 9   3/ 9
64NM E OF VA BCH 0350   63 62  210/ 12/ 16 1026.4R   3/ 9   3/ 9
DUCK PIER NC     0300   67 53  200/ 10/ 14 1026.0R
44056 DUCK FRF   0311      57                N/A     2/10   2/13
OREGON INLET NC  0300   66 70  190/  7/  9 1027.4R
HATTERAS NC      0300   68 66  200/  5/  7 1027.3R
DIAMOND SHLS NC  0350   74 77  200/ 14/ 17 1027.9R   3/10   3/10
CAPE LOOKOUT NC  0400   68     190/  6/  6 1027.7F
$$


USA.gov is the U.S. government's official web portal to all federal, state and local government web resources and services.